Montauk, NY

11:33 PM EDT on July 23, 2016 (GMT -0400)
Montauk

Weather History for KMTP - April, 2013

Change the Weather History Date:

Friday, April 19, 2013

  Actual Average (KHTO) Record (KHTO)
Temperature  
Mean Temperature 54 °F -  
Max Temperature 60 °F 57 °F 75 °F (1985)
Min Temperature 50 °F 39 °F 26 °F (1990)
Degree Days  
Heating Degree Days 10    
Growing Degree Days 4 (Base 50)    
Moisture  
Dew Point 53 °F    
Average Humidity 96    
Maximum Humidity 100    
Minimum Humidity 87    
Precipitation  
Precipitation 0.03 in - - ()
Sea Level Pressure  
Sea Level Pressure 29.94 in    
Wind  
Wind Speed 9 mph (South)    
Max Wind Speed 18 mph    
Max Gust Speed 26 mph    
Averages and records for this station are not official NWS values.
T = Trace of Precipitation, MM = Missing Value Source: NWS Daily Summary

Daily Weather History Graph

Daily Weather History Graph

Search for Another Location

Airport or City:

Trip Planner

Search our weather history database for the weather conditions in past years. The results will help you decide how hot, cold, wet, or windy it might be!

Date:

Astronomy

Apr. 19, 2013 Rise Set
Actual Time 6:02 AM EDT 7:32 PM EDT
Civil Twilight 5:33 AM EDT 8:01 PM EDT
Nautical Twilight 4:58 AM EDT 8:35 PM EDT
Astronomical Twilight 4:21 AM EDT 9:12 PM EDT
Moon 1:10 PM EDT (4/19) 2:19 AM EDT (4/19)
Length of Visible Light 14h 27m
Length of Day
13h 30m
First Quarter, 61% of the Moon is Illuminated
Apr 19
First Quarter
Apr 25
Full
May 2
Last Quarter
May 9
New
May 18
First Quarter

Hourly Weather History & Observations

Time (EDT) Temp. Dew Point Humidity Pressure Visibility Wind Dir Wind Speed Gust Speed Precip Events Conditions
12:54 AM 50.0 °F 48.0 °F 93% 30.15 in - South 9.2 mph - N/A   Unknown
1:54 AM 51.1 °F 50.0 °F 96% 30.12 in - South 8.1 mph - N/A   Unknown
2:54 AM 51.1 °F 50.0 °F 96% 30.09 in - South 6.9 mph - N/A   Unknown
4:54 AM 51.1 °F 50.0 °F 96% 30.06 in - South 8.1 mph - N/A   Unknown
5:54 AM 51.1 °F 50.0 °F 96% 30.05 in - South 6.9 mph - N/A   Unknown
7:54 AM 52.0 °F 52.0 °F 100% 30.04 in - South 9.2 mph 17.3 mph N/A   Unknown
8:54 AM 52.0 °F 52.0 °F 100% 30.04 in - South 9.2 mph 16.1 mph N/A   Unknown
9:54 AM 54.0 °F 53.1 °F 97% 30.01 in - South 9.2 mph 21.9 mph N/A   Unknown
10:54 AM 55.0 °F 54.0 °F 96% 30.02 in - South 11.5 mph 21.9 mph N/A   Unknown
11:54 AM 55.9 °F 54.0 °F 93% 30.00 in - South 8.1 mph 17.3 mph N/A   Unknown
12:54 PM 59.0 °F 55.0 °F 87% 29.96 in - South 11.5 mph 20.7 mph N/A   Unknown
1:54 PM 57.9 °F 54.0 °F 87% 29.94 in - South 6.9 mph 17.3 mph N/A   Unknown
2:54 PM 57.0 °F 55.0 °F 93% 29.91 in - South 9.2 mph 18.4 mph N/A   Unknown
3:54 PM 55.9 °F 55.0 °F 97% 29.87 in - South 8.1 mph - 0.01 in   Unknown
4:54 PM 55.9 °F 55.0 °F 97% 29.85 in - South 6.9 mph 19.6 mph N/A   Unknown
5:54 PM 54.0 °F 53.1 °F 97% 29.83 in - South 9.2 mph 18.4 mph N/A   Unknown
6:54 PM 55.0 °F 54.0 °F 96% 29.81 in - South 10.4 mph 18.4 mph N/A   Unknown
7:54 PM 55.0 °F 55.0 °F 100% 29.80 in - South 10.4 mph 23.0 mph N/A   Unknown
8:54 PM 55.9 °F 55.0 °F 97% 29.78 in - South 11.5 mph 25.3 mph N/A   Unknown
9:54 PM 55.9 °F 55.0 °F 97% 29.78 in - South 13.8 mph 24.2 mph N/A   Unknown
10:54 PM 57.0 °F 55.9 °F 96% 29.77 in - South 12.7 mph 26.5 mph N/A   Unknown
11:54 PM 57.0 °F 57.0 °F 100% 29.76 in - South 18.4 mph 26.5 mph 0.02 in   Unknown